| time (UTC) | temp C | wind direction | speed KPH | gust KPH | rain 1hr cm | rain 24hr cm | rain mn cm | humidity % | barometer mb |
| 20260508113722 | 14 | 128 | 0.0 | 0.0 | 0.00 | 0.00 | 0.00 | 51 | 1014.4 |
| 20260508113220 | 14 | 128 | 0.0 | 0.0 | 0.00 | 0.00 | 0.00 | 50 | 1014.2 |
| 20260508112723 | 15 | 128 | 0.0 | 0.0 | 0.00 | 0.00 | 0.00 | 50 | 1014.2 |
| 20260508112220 | 15 | 128 | 0.0 | 0.0 | 0.00 | 0.00 | 0.00 | 49 | 1014.2 |
| 20260508111717 | 15 | 128 | 0.0 | 0.0 | 0.00 | 0.00 | 0.00 | 50 | 1014.1 |
| 20260508111216 | 15 | 127 | 0.0 | 0.0 | 0.00 | 0.00 | 0.00 | 50 | 1014.1 |
| 20260508110715 | 14 | 128 | 0.0 | 0.0 | 0.00 | 0.00 | 0.00 | 50 | 1014.1 |
| 20260508110214 | 14 | 128 | 0.0 | 0.0 | 0.00 | 0.00 | 0.00 | 49 | 1014.1 |
| 20260508105945 | 15 | 128 | 0.0 | 0.0 | 0.00 | 0.00 | 0.00 | 48 | 1014.1 |
| 20260508105213 | 15 | 128 | 0.0 | 0.0 | 0.00 | 0.00 | 0.00 | 49 | 1014.1 |
| 20260508104710 | 15 | 128 | 0.0 | 0.0 | 0.00 | 0.00 | 0.00 | 47 | 1014.1 |
| 20260508104214 | 15 | 128 | 0.0 | 0.0 | 0.00 | 0.00 | 0.00 | 45 | 1014.1 |
| 20260508103707 | 15 | 128 | 0.0 | 0.0 | 0.00 | 0.00 | 0.00 | 45 | 1014.0 |
| 20260508103158 | 16 | 128 | 0.0 | 0.0 | 0.00 | 0.00 | 0.00 | 44 | 1014.0 |
| 20260508102650 | 16 | 128 | 0.0 | 0.0 | 0.00 | 0.00 | 0.00 | 42 | 1013.9 |
| 20260508102407 | 16 | 128 | 0.0 | 0.0 | 0.00 | 0.00 | 0.00 | 40 | 1014.0 |
| 20260508101634 | 16 | 127 | 0.0 | 0.0 | 0.00 | 0.00 | 0.00 | 39 | 1014.0 |
| 20260508101356 | 17 | 128 | 0.0 | 0.0 | 0.00 | 0.00 | 0.00 | 38 | 1014.0 |
| 20260508100624 | 17 | 128 | 0.0 | 0.0 | 0.00 | 0.00 | 0.00 | 37 | 1014.0 |
| 20260508100333 | 17 | 128 | 0.0 | 1.6 | 0.00 | 0.00 | 0.00 | 37 | 1013.9 |
| 20260508095607 | 17 | 127 | 0.0 | 1.6 | 0.00 | 0.00 | 0.00 | 37 | 1013.9 |
| 20260508095102 | 17 | 137 | 0.0 | 3.2 | 0.00 | 0.00 | 0.00 | 36 | 1013.8 |
| 20260508094551 | 17 | 98 | 0.0 | 3.2 | 0.00 | 0.00 | 0.00 | 37 | 1013.9 |
| 20260508094046 | 17 | 133 | 0.0 | 0.0 | 0.00 | 0.00 | 0.00 | 37 | 1013.9 |
| 20260508093540 | 17 | 133 | 0.0 | 0.0 | 0.00 | 0.00 | 0.00 | 40 | 1014.0 |
| 20260508093029 | 17 | 133 | 0.0 | 0.0 | 0.00 | 0.00 | 0.00 | 39 | 1014.0 |
| 20260508092747 | 18 | 133 | 0.0 | 0.0 | 0.00 | 0.00 | 0.00 | 35 | 1014.0 |
| 20260508092019 | 18 | 133 | 0.0 | 1.6 | 0.00 | 0.00 | 0.00 | 35 | 1013.9 |
| 20260508091508 | 18 | 134 | 0.0 | 1.6 | 0.00 | 0.00 | 0.00 | 35 | 1013.9 |
| 20260508091002 | 18 | 134 | 0.0 | 0.0 | 0.00 | 0.00 | 0.00 | 35 | 1014.0 |
| 20260508090455 | 19 | 134 | 0.0 | 3.2 | 0.00 | 0.00 | 0.00 | 33 | 1014.0 |
| 20260508090438 | 19 | 134 | 1.6 | 3.2 | 0.00 | 0.00 | 0.00 | 33 | 1014.0 |
| 20260508085439 | 19 | 145 | 1.6 | 4.8 | 0.00 | 0.00 | 0.00 | 33 | 1014.0 |
| 20260508084934 | 18 | 136 | 3.2 | 8.0 | 0.00 | 0.00 | 0.00 | 33 | 1013.9 |
| 20260508084424 | 18 | 141 | 1.6 | 8.0 | 0.00 | 0.00 | 0.00 | 33 | 1013.9 |
| 20260508083918 | 18 | 126 | 0.0 | 4.8 | 0.00 | 0.00 | 0.00 | 34 | 1014.0 |
| 20260508083636 | 17 | 153 | 0.0 | 3.2 | 0.00 | 0.00 | 0.00 | 36 | 1014.1 |
| 20260508083347 | 16 | 161 | 0.0 | 3.2 | 0.00 | 0.00 | 0.00 | 38 | 1014.2 |
| 20260508082356 | 16 | 155 | 0.0 | 0.0 | 0.00 | 0.00 | 0.00 | 40 | 1014.2 |
| 20260508081849 | 17 | 155 | 0.0 | 0.0 | 0.00 | 0.00 | 0.00 | 39 | 1014.4 |
| 20260508081607 | 17 | 155 | 0.0 | 0.0 | 0.00 | 0.00 | 0.00 | 39 | 1014.4 |
| 20260508080834 | 17 | 155 | 0.0 | 0.0 | 0.00 | 0.00 | 0.00 | 37 | 1014.4 |
| 20260508080328 | 18 | 155 | 0.0 | 0.0 | 0.00 | 0.00 | 0.00 | 36 | 1014.5 |
| 20260508075818 | 18 | 155 | 0.0 | 0.0 | 0.00 | 0.00 | 0.00 | 36 | 1014.5 |
| 20260508075311 | 18 | 155 | 0.0 | 0.0 | 0.00 | 0.00 | 0.00 | 36 | 1014.6 |
| 20260508074805 | 18 | 155 | 0.0 | 0.0 | 0.00 | 0.00 | 0.00 | 35 | 1014.7 |
| 20260508074255 | 18 | 155 | 0.0 | 0.0 | 0.00 | 0.00 | 0.00 | 32 | 1014.6 |
| 20260508073749 | 18 | 155 | 0.0 | 0.0 | 0.00 | 0.00 | 0.00 | 32 | 1014.7 |
| 20260508073244 | 19 | 155 | 0.0 | 0.0 | 0.00 | 0.00 | 0.00 | 31 | 1014.7 |
| 20260508072733 | 19 | 165 | 0.0 | 3.2 | 0.00 | 0.00 | 0.00 | 31 | 1014.6 |
| 20260508072229 | 19 | 131 | 0.0 | 3.2 | 0.00 | 0.00 | 0.00 | 31 | 1014.7 |
| 20260508071722 | 19 | 113 | 0.0 | 1.6 | 0.00 | 0.00 | 0.00 | 31 | 1014.7 |
| 20260508071212 | 19 | 96 | 0.0 | 1.6 | 0.00 | 0.00 | 0.00 | 31 | 1014.8 |
| 20260508070704 | 19 | 116 | 1.6 | 3.2 | 0.00 | 0.00 | 0.00 | 31 | 1014.8 |
| 20260508070200 | 19 | 129 | 1.6 | 4.8 | 0.00 | 0.00 | 0.00 | 30 | 1014.8 |
| 20260508065649 | 20 | 116 | 1.6 | 4.8 | 0.00 | 0.00 | 0.00 | 30 | 1014.7 |
| 20260508065144 | 20 | 121 | 1.6 | 4.8 | 0.00 | 0.00 | 0.00 | 30 | 1014.7 |
| 20260508064638 | 20 | 110 | 0.0 | 3.2 | 0.00 | 0.00 | 0.00 | 29 | 1014.8 |
| 20260508064128 | 20 | 129 | 0.0 | 1.6 | 0.00 | 0.00 | 0.00 | 29 | 1014.8 |
| 20260508063622 | 20 | 113 | 0.0 | 3.2 | 0.00 | 0.00 | 0.00 | 29 | 1014.8 |
| 20260508063121 | 20 | 117 | 0.0 | 3.2 | 0.00 | 0.00 | 0.00 | 29 | 1014.9 |
| 20260508062617 | 20 | 110 | 0.0 | 3.2 | 0.00 | 0.00 | 0.00 | 29 | 1015.0 |
| 20260508062344 | 20 | 133 | 0.0 | 3.2 | 0.00 | 0.00 | 0.00 | 29 | 1015.0 |
| 20260508061616 | 20 | 217 | 1.6 | 11.3 | 0.00 | 0.00 | 0.00 | 29 | 1015.0 |
| 20260508061116 | 20 | 219 | 1.6 | 11.3 | 0.00 | 0.00 | 0.00 | 30 | 1015.0 |
| 20260508060617 | 20 | 343 | 0.0 | 0.0 | 0.00 | 0.00 | 0.00 | 31 | 1014.8 |
| 20260508060114 | 20 | 343 | 0.0 | 0.0 | 0.00 | 0.00 | 0.00 | 30 | 1014.8 |
| 20260508055838 | 21 | 343 | 0.0 | 0.0 | 0.00 | 0.00 | 0.00 | 29 | 1014.9 |
| 20260508055109 | 21 | 343 | 0.0 | 3.2 | 0.00 | 0.00 | 0.00 | 28 | 1014.8 |
| 20260508054611 | 21 | 343 | 0.0 | 3.2 | 0.00 | 0.00 | 0.00 | 28 | 1014.7 |
| 20260508054106 | 21 | 6 | 0.0 | 0.0 | 0.00 | 0.00 | 0.00 | 27 | 1014.8 |
| 20260508053604 | 22 | 219 | 0.0 | 0.0 | 0.00 | 0.00 | 0.00 | 26 | 1014.8 |
| 20260508053103 | 22 | 219 | 0.0 | 1.6 | 0.00 | 0.00 | 0.00 | 25 | 1014.8 |
| 20260508052600 | 22 | 219 | 1.6 | 6.4 | 0.00 | 0.00 | 0.00 | 25 | 1014.8 |
| 20260508052058 | 22 | 214 | 1.6 | 6.4 | 0.00 | 0.00 | 0.00 | 24 | 1014.7 |
| 20260508051822 | 22 | 144 | 1.6 | 4.8 | 0.00 | 0.00 | 0.00 | 24 | 1014.6 |
| 20260508051312 | 22 | 242 | 1.6 | 6.4 | 0.00 | 0.00 | 0.00 | 25 | 1014.7 |
| 20260508050549 | 22 | 212 | 1.6 | 6.4 | 0.00 | 0.00 | 0.00 | 25 | 1014.7 |
| 20260508050042 | 22 | 160 | 1.6 | 6.4 | 0.00 | 0.00 | 0.00 | 25 | 1014.6 |
| 20260508045536 | 22 | 177 | 1.6 | 6.4 | 0.00 | 0.00 | 0.00 | 25 | 1014.6 |
| 20260508045037 | 22 | 165 | 1.6 | 4.8 | 0.00 | 0.00 | 0.00 | 24 | 1014.6 |
| 20260508044533 | 23 | 226 | 1.6 | 4.8 | 0.00 | 0.00 | 0.00 | 24 | 1014.6 |
| 20260508044259 | 23 | 155 | 3.2 | 8.0 | 0.00 | 0.00 | 0.00 | 24 | 1014.5 |
| 20260508043806 | 23 | 144 | 3.2 | 8.0 | 0.00 | 0.00 | 0.00 | 24 | 1014.5 |
| 20260508043035 | 22 | 177 | 3.2 | 8.0 | 0.00 | 0.00 | 0.00 | 24 | 1014.6 |
| 20260508042532 | 23 | 139 | 3.2 | 8.0 | 0.00 | 0.00 | 0.00 | 24 | 1014.5 |
| 20260508042032 | 23 | 146 | 3.2 | 8.0 | 0.00 | 0.00 | 0.00 | 24 | 1014.5 |
| 20260508041531 | 23 | 141 | 1.6 | 6.4 | 0.00 | 0.00 | 0.00 | 24 | 1014.4 |
| 20260508041032 | 23 | 151 | 1.6 | 4.8 | 0.00 | 0.00 | 0.00 | 24 | 1014.4 |
| 20260508040529 | 23 | 147 | 1.6 | 4.8 | 0.00 | 0.00 | 0.00 | 24 | 1014.4 |
| 20260508040028 | 23 | 151 | 0.0 | 3.2 | 0.00 | 0.00 | 0.00 | 24 | 1014.1 |
| 20260508035526 | 23 | 142 | 0.0 | 3.2 | 0.00 | 0.00 | 0.00 | 24 | 1014.0 |
| 20260508035025 | 23 | 142 | 0.0 | 3.2 | 0.00 | 0.00 | 0.00 | 23 | 1013.9 |
| 20260508034523 | 23 | 255 | 0.0 | 3.2 | 0.00 | 0.00 | 0.00 | 23 | 1013.8 |
| 20260508034023 | 23 | 161 | 1.6 | 4.8 | 0.00 | 0.00 | 0.00 | 23 | 1013.7 |
| 20260508033516 | 24 | 21 | 0.0 | 4.8 | 0.00 | 0.00 | 0.00 | 22 | 1013.7 |
| 20260508033011 | 24 | 75 | 0.0 | 4.8 | 0.00 | 0.00 | 0.00 | 23 | 1013.6 |
| 20260508032504 | 24 | 135 | 1.6 | 8.0 | 0.00 | 0.00 | 0.00 | 22 | 1013.4 |
| 20260508032005 | 25 | 139 | 3.2 | 9.7 | 0.00 | 0.00 | 0.00 | 21 | 1013.3 |
| 20260508031504 | 25 | 159 | 4.8 | 9.7 | 0.00 | 0.00 | 0.00 | 21 | 1013.2 |
| 20260508031004 | 25 | 203 | 4.8 | 9.7 | 0.00 | 0.00 | 0.00 | 21 | 1012.9 |
| 20260508030504 | 25 | 224 | 4.8 | 11.3 | 0.00 | 0.00 | 0.00 | 21 | 1012.8 |
| 20260508030005 | 25 | 212 | 6.4 | 12.9 | 0.00 | 0.00 | 0.00 | 20 | 1012.7 |
| 20260508025504 | 25 | 224 | 8.0 | 16.1 | 0.00 | 0.00 | 0.00 | 20 | 1012.6 |
| 20260508025005 | 25 | 234 | 9.7 | 19.3 | 0.00 | 0.00 | 0.00 | 20 | 1012.4 |
| 20260508024504 | 25 | 226 | 9.7 | 24.1 | 0.00 | 0.00 | 0.00 | 20 | 1012.3 |
| 20260508024005 | 25 | 208 | 9.7 | 24.1 | 0.00 | 0.00 | 0.00 | 19 | 1012.2 |
| 20260508023725 | 26 | 212 | 11.3 | 24.1 | 0.00 | 0.00 | 0.00 | 19 | 1012.0 |
| 20260508023005 | 26 | 209 | 11.3 | 24.1 | 0.00 | 0.00 | 0.00 | 19 | 1012.0 |
| 20260508022724 | 26 | 200 | 12.9 | 24.1 | 0.00 | 0.00 | 0.00 | 19 | 1012.0 |
| 20260508022000 | 26 | 231 | 14.5 | 24.1 | 0.00 | 0.00 | 0.00 | 18 | 1011.8 |
| 20260508021500 | 26 | 224 | 16.1 | 32.2 | 0.00 | 0.00 | 0.00 | 18 | 1011.6 |
| 20260508021000 | 27 | 243 | 14.5 | 32.2 | 0.00 | 0.00 | 0.00 | 17 | 1011.5 |
| 20260508020459 | 28 | 276 | 14.5 | 22.5 | 0.00 | 0.00 | 0.00 | 14 | 1011.5 |
| 20260508015959 | 28 | 285 | 12.9 | 22.5 | 0.00 | 0.00 | 0.00 | 13 | 1011.3 |
| 20260508015501 | 29 | 259 | 9.7 | 22.5 | 0.00 | 0.00 | 0.00 | 13 | 1011.1 |
| 20260508015001 | 29 | 291 | 11.3 | 24.1 | 0.00 | 0.00 | 0.00 | 13 | 1011.0 |
| 20260508014459 | 29 | 289 | 12.9 | 24.1 | 0.00 | 0.00 | 0.00 | 13 | 1010.9 |
| 20260508013959 | 30 | 264 | 11.3 | 22.5 | 0.00 | 0.00 | 0.00 | 13 | 1010.9 |
| 20260508013502 | 30 | 266 | 8.0 | 17.7 | 0.00 | 0.00 | 0.00 | 12 | 1010.8 |
| 20260508013003 | 30 | 287 | 6.4 | 16.1 | 0.00 | 0.00 | 0.00 | 12 | 1010.9 |
| 20260508012723 | 30 | 258 | 4.8 | 16.1 | 0.00 | 0.00 | 0.00 | 12 | 1010.9 |
| 20260508012003 | 31 | 251 | 6.4 | 20.9 | 0.00 | 0.00 | 0.00 | 12 | 1010.9 |
| 20260508011504 | 31 | 309 | 4.8 | 20.9 | 0.00 | 0.00 | 0.00 | 12 | 1010.7 |
| 20260508011004 | 31 | 243 | 3.2 | 14.5 | 0.00 | 0.00 | 0.00 | 12 | 1010.7 |
| 20260508010503 | 31 | 268 | 3.2 | 6.4 | 0.00 | 0.00 | 0.00 | 11 | 1010.7 |
| 20260508010002 | 31 | 253 | 3.2 | 9.7 | 0.00 | 0.00 | 0.00 | 12 | 1010.6 |
| 20260508005737 | 31 | 281 | 3.2 | 9.7 | 0.00 | 0.00 | 0.00 | 12 | 1010.6 |
| 20260508005004 | 31 | 347 | 3.2 | 8.0 | 0.00 | 0.00 | 0.00 | 12 | 1010.5 |
| 20260508004503 | 31 | 321 | 3.2 | 9.7 | 0.00 | 0.00 | 0.00 | 12 | 1010.5 |
| 20260508004004 | 31 | 318 | 3.2 | 9.7 | 0.00 | 0.00 | 0.00 | 13 | 1010.3 |
| 20260508003725 | 30 | 277 | 4.8 | 9.7 | 0.00 | 0.00 | 0.00 | 12 | 1010.3 |
| 20260508003005 | 31 | 8 | 3.2 | 8.0 | 0.00 | 0.00 | 0.00 | 12 | 1010.2 |
| 20260508002502 | 31 | 323 | 3.2 | 9.7 | 0.00 | 0.00 | 0.00 | 12 | 1010.3 |
| 20260508001957 | 31 | 255 | 3.2 | 9.7 | 0.00 | 0.00 | 0.00 | 12 | 1010.3 |
| 20260508001718 | 30 | 274 | 3.2 | 8.0 | 0.00 | 0.00 | 0.00 | 13 | 1010.2 |
| 20260508000958 | 30 | 280 | 3.2 | 8.0 | 0.00 | 0.00 | 0.00 | 13 | 1010.2 |
| 20260508000457 | 30 | 249 | 3.2 | 8.0 | 0.00 | 0.00 | 0.00 | 13 | 1010.2 |
| 20260507235955 | 30 | 151 | 3.2 | 6.4 | 0.00 | 0.00 | 0.00 | 12 | 1010.2 |
| 20260507235454 | 30 | 263 | 3.2 | 6.4 | 0.00 | 0.00 | 0.00 | 11 | 1010.2 |
| 20260507234953 | 30 | 229 | 3.2 | 6.4 | 0.00 | 0.00 | 0.00 | 11 | 1010.2 |
| 20260507234451 | 30 | 144 | 3.2 | 9.7 | 0.00 | 0.00 | 0.00 | 11 | 1010.2 |
| 20260507233951 | 30 | 104 | 4.8 | 14.5 | 0.00 | 0.00 | 0.00 | 11 | 1010.2 |
| 20260507233456 | 30 | 69 | 6.4 | 14.5 | 0.00 | 0.00 | 0.00 | 11 | 1010.3 |
| 20260507232951 | 31 | 98 | 4.8 | 14.5 | 0.00 | 0.00 | 0.00 | 11 | 1010.3 |
| 20260507232924 | 31 | 89 | 3.2 | 8.0 | 0.00 | 0.00 | 0.00 | 10 | 1010.2 |
| 20260507231948 | 31 | 94 | 3.2 | 8.0 | 0.00 | 0.00 | 0.00 | 10 | 1010.3 |
| 20260507231444 | 32 | 95 | 3.2 | 9.7 | 0.00 | 0.00 | 0.00 | 11 | 1010.3 |
| 20260507230939 | 31 | 196 | 4.8 | 9.7 | 0.00 | 0.00 | 0.00 | 11 | 1010.3 |
| 20260507230439 | 31 | 13 | 4.8 | 11.3 | 0.00 | 0.00 | 0.00 | 11 | 1010.5 |
| 20260507225937 | 32 | 3 | 3.2 | 11.3 | 0.00 | 0.00 | 0.00 | 10 | 1010.5 |
| 20260507225438 | 32 | 191 | 3.2 | 8.0 | 0.00 | 0.00 | 0.00 | 11 | 1010.5 |
| 20260507224938 | 31 | 220 | 3.2 | 11.3 | 0.00 | 0.00 | 0.00 | 12 | 1010.6 |
| 20260507224928 | 31 | 237 | 4.8 | 11.3 | 0.00 | 0.00 | 0.00 | 12 | 1010.6 |
| 20260507224159 | 30 | 257 | 4.8 | 16.1 | 0.00 | 0.00 | 0.00 | 12 | 1010.6 |
| 20260507223659 | 30 | 4 | 4.8 | 16.1 | 0.00 | 0.00 | 0.00 | 11 | 1010.6 |
| 20260507222933 | 31 | 263 | 4.8 | 11.3 | 0.00 | 0.00 | 0.00 | 11 | 1010.7 |
| 20260507222435 | 31 | 9 | 4.8 | 11.3 | 0.00 | 0.00 | 0.00 | 11 | 1010.7 |
| 20260507221935 | 31 | 323 | 4.8 | 14.5 | 0.00 | 0.00 | 0.00 | 11 | 1010.7 |
| 20260507221431 | 31 | 324 | 4.8 | 14.5 | 0.00 | 0.00 | 0.00 | 11 | 1010.7 |
| 20260507221148 | 31 | 18 | 6.4 | 12.9 | 0.00 | 0.00 | 0.00 | 11 | 1010.7 |
| 20260507220652 | 31 | 231 | 4.8 | 11.3 | 0.00 | 0.00 | 0.00 | 11 | 1010.7 |
| 20260507215934 | 31 | 23 | 4.8 | 11.3 | 0.00 | 0.00 | 0.00 | 10 | 1010.9 |
| 20260507215429 | 32 | 320 | 1.6 | 14.5 | 0.00 | 0.00 | 0.00 | 10 | 1011.0 |
| 20260507214923 | 32 | 296 | 1.6 | 8.0 | 0.00 | 0.00 | 0.00 | 11 | 1011.1 |
| 20260507214413 | 31 | 348 | 3.2 | 14.5 | 0.00 | 0.00 | 0.00 | 11 | 1011.2 |
| 20260507213907 | 31 | 296 | 4.8 | 14.5 | 0.00 | 0.00 | 0.00 | 11 | 1011.2 |
| 20260507213401 | 31 | 262 | 3.2 | 9.7 | 0.00 | 0.00 | 0.00 | 11 | 1011.3 |
| 20260507212849 | 30 | 221 | 3.2 | 6.4 | 0.00 | 0.00 | 0.00 | 12 | 1011.3 |
| 20260507212346 | 30 | 266 | 3.2 | 8.0 | 0.00 | 0.00 | 0.00 | 12 | 1011.5 |
| 20260507211839 | 30 | 329 | 4.8 | 14.5 | 0.00 | 0.00 | 0.00 | 12 | 1011.5 |
| 20260507211546 | 30 | 1 | 6.4 | 14.5 | 0.00 | 0.00 | 0.00 | 12 | 1011.6 |
| 20260507210823 | 30 | 313 | 6.4 | 16.1 | 0.00 | 0.00 | 0.00 | 12 | 1011.8 |
| 20260507210317 | 30 | 44 | 6.4 | 24.1 | 0.00 | 0.00 | 0.00 | 12 | 1011.9 |
| 20260507210024 | 30 | 77 | 4.8 | 24.1 | 0.00 | 0.00 | 0.00 | 12 | 1011.6 |
| 20260507205519 | 30 | 125 | 4.8 | 11.3 | 0.00 | 0.00 | 0.00 | 12 | 1011.9 |
| 20260507204755 | 31 | 39 | 1.6 | 11.3 | 0.00 | 0.00 | 0.00 | 12 | 1011.9 |
| 20260507204244 | 31 | 217 | 1.6 | 9.7 | 0.00 | 0.00 | 0.00 | 11 | 1012.0 |
| 20260507203739 | 31 | 286 | 1.6 | 8.0 | 0.00 | 0.00 | 0.00 | 11 | 1012.0 |
| 20260507203233 | 31 | 305 | 3.2 | 11.3 | 0.00 | 0.00 | 0.00 | 12 | 1012.1 |
| 20260507202722 | 31 | 270 | 4.8 | 11.3 | 0.00 | 0.00 | 0.00 | 11 | 1012.2 |
| 20260507202217 | 31 | 237 | 4.8 | 11.3 | 0.00 | 0.00 | 0.00 | 11 | 1012.1 |
| 20260507202155 | 31 | 196 | 3.2 | 11.3 | 0.00 | 0.00 | 0.00 | 11 | 1012.2 |
| 20260507201201 | 31 | 118 | 3.2 | 14.5 | 0.00 | 0.00 | 0.00 | 13 | 1012.2 |
| 20260507200655 | 31 | 252 | 4.8 | 14.5 | 0.00 | 0.00 | 0.00 | 12 | 1012.3 |
| 20260507200149 | 31 | 75 | 4.8 | 16.1 | 0.00 | 0.00 | 0.00 | 12 | 1012.4 |
| 20260507195638 | 31 | 105 | 6.4 | 16.1 | 0.00 | 0.00 | 0.00 | 12 | 1012.5 |
| 20260507195131 | 31 | 185 | 6.4 | 16.1 | 0.00 | 0.00 | 0.00 | 11 | 1012.5 |
| 20260507194628 | 31 | 101 | 8.0 | 17.7 | 0.00 | 0.00 | 0.00 | 12 | 1012.5 |
| 20260507194118 | 31 | 33 | 8.0 | 17.7 | 0.00 | 0.00 | 0.00 | 12 | 1012.5 |
| 20260507193609 | 31 | 80 | 4.8 | 12.9 | 0.00 | 0.00 | 0.00 | 13 | 1012.6 |
| 20260507193105 | 31 | 129 | 1.6 | 6.4 | 0.00 | 0.00 | 0.00 | 13 | 1012.6 |
| 20260507192554 | 30 | 276 | 4.8 | 16.1 | 0.00 | 0.00 | 0.00 | 13 | 1012.7 |
| 20260507192047 | 30 | 120 | 4.8 | 16.1 | 0.00 | 0.00 | 0.00 | 13 | 1012.7 |
| 20260507191543 | 30 | 356 | 4.8 | 16.1 | 0.00 | 0.00 | 0.00 | 13 | 1012.9 |
| 20260507191033 | 30 | 305 | 4.8 | 16.1 | 0.00 | 0.00 | 0.00 | 13 | 1012.9 |
| 20260507190528 | 30 | 265 | 3.2 | 9.7 | 0.00 | 0.00 | 0.00 | 13 | 1013.1 |
| 20260507190021 | 30 | 310 | 4.8 | 12.9 | 0.00 | 0.00 | 0.00 | 13 | 1013.2 |
| 20260507185511 | 30 | 328 | 6.4 | 12.9 | 0.00 | 0.00 | 0.00 | 13 | 1013.2 |
| 20260507185004 | 30 | 271 | 3.2 | 9.7 | 0.00 | 0.00 | 0.00 | 14 | 1013.2 |
| 20260507184459 | 30 | 250 | 1.6 | 8.0 | 0.00 | 0.00 | 0.00 | 15 | 1013.3 |
| 20260507184213 | 30 | 212 | 3.2 | 8.0 | 0.00 | 0.00 | 0.00 | 15 | 1013.4 |
| 20260507183443 | 29 | 283 | 3.2 | 8.0 | 0.00 | 0.00 | 0.00 | 15 | 1013.5 |
| 20260507182937 | 29 | 248 | 3.2 | 14.5 | 0.00 | 0.00 | 0.00 | 16 | 1013.5 |
| 20260507182427 | 28 | 276 | 3.2 | 14.5 | 0.00 | 0.00 | 0.00 | 16 | 1013.5 |
| 20260507181920 | 28 | 332 | 3.2 | 8.0 | 0.00 | 0.00 | 0.00 | 16 | 1013.6 |
| 20260507181415 | 28 | 19 | 3.2 | 9.7 | 0.00 | 0.00 | 0.00 | 16 | 1013.7 |
| 20260507180904 | 28 | 303 | 3.2 | 8.0 | 0.00 | 0.00 | 0.00 | 18 | 1013.8 |
| 20260507180359 | 28 | 323 | 3.2 | 8.0 | 0.00 | 0.00 | 0.00 | 17 | 1013.9 |
| 20260507175853 | 28 | 330 | 3.2 | 8.0 | 0.00 | 0.00 | 0.00 | 18 | 1014.0 |
| 20260507175343 | 27 | 266 | 3.2 | 8.0 | 0.00 | 0.00 | 0.00 | 19 | 1014.0 |
| 20260507174837 | 28 | 273 | 3.2 | 8.0 | 0.00 | 0.00 | 0.00 | 18 | 1014.1 |
| 20260507174331 | 28 | 313 | 1.6 | 6.4 | 0.00 | 0.00 | 0.00 | 18 | 1014.2 |
| 20260507173821 | 28 | 275 | 0.0 | 4.8 | 0.00 | 0.00 | 0.00 | 18 | 1014.4 |
| 20260507173315 | 28 | 137 | 0.0 | 3.2 | 0.00 | 0.00 | 0.00 | 18 | 1014.5 |
| 20260507172810 | 26 | 59 | 1.6 | 4.8 | 0.00 | 0.00 | 0.00 | 20 | 1014.6 |
| 20260507172259 | 26 | 25 | 1.6 | 6.4 | 0.00 | 0.00 | 0.00 | 19 | 1014.6 |
| 20260507171753 | 26 | 320 | 1.6 | 6.4 | 0.00 | 0.00 | 0.00 | 20 | 1014.6 |
| 20260507171253 | 26 | 285 | 3.2 | 6.4 | 0.00 | 0.00 | 0.00 | 20 | 1014.7 |
| 20260507170747 | 26 | 286 | 3.2 | 6.4 | 0.00 | 0.00 | 0.00 | 20 | 1014.7 |
| 20260507170510 | 26 | 285 | 1.6 | 6.4 | 0.00 | 0.00 | 0.00 | 20 | 1014.7 |
| 20260507170006 | 26 | 278 | 1.6 | 6.4 | 0.00 | 0.00 | 0.00 | 20 | 1014.8 |
| 20260507165247 | 26 | 274 | 0.0 | 3.2 | 0.00 | 0.00 | 0.00 | 21 | 1014.7 |
| 20260507164747 | 25 | 288 | 0.0 | 4.8 | 0.00 | 0.00 | 0.00 | 21 | 1014.8 |
| 20260507164247 | 25 | 281 | 1.6 | 4.8 | 0.00 | 0.00 | 0.00 | 21 | 1014.8 |
| 20260507163746 | 25 | 288 | 0.0 | 3.2 | 0.00 | 0.00 | 0.00 | 21 | 1014.8 |
| 20260507163251 | 25 | 275 | 0.0 | 3.2 | 0.00 | 0.00 | 0.00 | 21 | 1014.8 |
| 20260507162747 | 25 | 243 | 1.6 | 4.8 | 0.00 | 0.00 | 0.00 | 22 | 1014.9 |
| 20260507162508 | 25 | 271 | 1.6 | 4.8 | 0.00 | 0.00 | 0.00 | 21 | 1015.0 |
| 20260507161747 | 25 | 254 | 0.0 | 4.8 | 0.00 | 0.00 | 0.00 | 21 | 1015.1 |
| 20260507161246 | 24 | 278 | 1.6 | 3.2 | 0.00 | 0.00 | 0.00 | 22 | 1015.1 |
| 20260507160747 | 24 | 228 | 1.6 | 3.2 | 0.00 | 0.00 | 0.00 | 23 | 1015.2 |
| 20260507160500 | 23 | 218 | 0.0 | 3.2 | 0.00 | 0.00 | 0.00 | 23 | 1015.2 |
| 20260507155741 | 23 | 278 | 0.0 | 3.2 | 0.00 | 0.00 | 0.00 | 24 | 1015.2 |
| 20260507155241 | 24 | 273 | 0.0 | 0.0 | 0.00 | 0.00 | 0.00 | 23 | 1015.3 |
| 20260507154744 | 23 | 240 | 0.0 | 1.6 | 0.00 | 0.00 | 0.00 | 25 | 1015.4 |
| 20260507154239 | 22 | 240 | 0.0 | 3.2 | 0.00 | 0.00 | 0.00 | 26 | 1015.3 |
| 20260507153739 | 22 | 265 | 0.0 | 3.2 | 0.00 | 0.00 | 0.00 | 26 | 1015.3 |
| 20260507153240 | 21 | 278 | 0.0 | 0.0 | 0.00 | 0.00 | 0.00 | 27 | 1015.4 |
| 20260507152737 | 21 | 266 | 0.0 | 1.6 | 0.00 | 0.00 | 0.00 | 27 | 1015.3 |
| 20260507152234 | 21 | 323 | 1.6 | 3.2 | 0.00 | 0.00 | 0.00 | 28 | 1015.4 |
| 20260507151736 | 21 | 256 | 1.6 | 3.2 | 0.00 | 0.00 | 0.00 | 28 | 1015.4 |
| 20260507151234 | 21 | 320 | 0.0 | 3.2 | 0.00 | 0.00 | 0.00 | 29 | 1015.4 |
| 20260507150739 | 21 | 293 | 0.0 | 1.6 | 0.00 | 0.00 | 0.00 | 29 | 1015.5 |
| 20260507150235 | 20 | 254 | 0.0 | 3.2 | 0.00 | 0.00 | 0.00 | 29 | 1015.5 |
| 20260507145957 | 20 | 8 | 0.0 | 3.2 | 0.00 | 0.00 | 0.00 | 30 | 1015.5 |
| 20260507145232 | 20 | 233 | 0.0 | 0.0 | 0.00 | 0.00 | 0.00 | 28 | 1015.5 |
| 20260507144730 | 20 | 221 | 0.0 | 1.6 | 0.00 | 0.00 | 0.00 | 30 | 1015.5 |
| 20260507144232 | 20 | 221 | 0.0 | 1.6 | 0.00 | 0.00 | 0.00 | 30 | 1015.5 |
| 20260507143953 | 20 | 220 | 0.0 | 0.0 | 0.00 | 0.00 | 0.00 | 31 | 1015.7 |
| 20260507143230 | 20 | 220 | 0.0 | 0.0 | 0.00 | 0.00 | 0.00 | 31 | 1015.7 |
| 20260507142731 | 20 | 220 | 0.0 | 0.0 | 0.00 | 0.00 | 0.00 | 31 | 1015.7 |
| 20260507142231 | 20 | 220 | 0.0 | 0.0 | 0.00 | 0.00 | 0.00 | 31 | 1015.7 |
| 20260507141731 | 20 | 220 | 0.0 | 0.0 | 0.00 | 0.00 | 0.00 | 32 | 1015.7 |
| 20260507141232 | 18 | 220 | 0.0 | 0.0 | 0.00 | 0.00 | 0.00 | 34 | 1015.7 |
| 20260507140733 | 18 | 220 | 0.0 | 0.0 | 0.00 | 0.00 | 0.00 | 36 | 1015.7 |
| 20260507140727 | 17 | 220 | 0.0 | 0.0 | 0.00 | 0.00 | 0.00 | 37 | 1015.7 |
| 20260507140001 | 17 | 221 | 0.0 | 0.0 | 0.00 | 0.00 | 0.00 | 36 | 1015.7 |
| 20260507135231 | 17 | 221 | 0.0 | 0.0 | 0.00 | 0.00 | 0.00 | 36 | 1015.7 |
| 20260507134731 | 16 | 220 | 0.0 | 1.6 | 0.00 | 0.00 | 0.00 | 40 | 1015.7 |
| 20260507134230 | 16 | 220 | 0.0 | 1.6 | 0.00 | 0.00 | 0.00 | 41 | 1015.7 |
| 20260507133731 | 16 | 221 | 0.0 | 1.6 | 0.00 | 0.00 | 0.00 | 42 | 1015.5 |
| 20260507133230 | 15 | 220 | 0.0 | 1.6 | 0.00 | 0.00 | 0.00 | 44 | 1015.4 |
| 20260507132730 | 15 | 172 | 0.0 | 0.0 | 0.00 | 0.00 | 0.00 | 43 | 1015.4 |
| 20260507132231 | 15 | 125 | 0.0 | 0.0 | 0.00 | 0.00 | 0.00 | 44 | 1015.4 |
| 20260507131732 | 15 | 124 | 0.0 | 0.0 | 0.00 | 0.00 | 0.00 | 44 | 1015.4 |
| 20260507131232 | 15 | 125 | 0.0 | 0.0 | 0.00 | 0.00 | 0.00 | 43 | 1015.3 |
| 20260507130731 | 14 | 124 | 0.0 | 0.0 | 0.00 | 0.00 | 0.00 | 44 | 1015.3 |
| 20260507130230 | 13 | 125 | 0.0 | 0.0 | 0.00 | 0.00 | 0.00 | 47 | 1015.2 |
| 20260507125955 | 13 | 122 | 0.0 | 0.0 | 0.00 | 0.00 | 0.00 | 48 | 1015.3 |
| 20260507125230 | 12 | 110 | 0.0 | 0.0 | 0.00 | 0.00 | 0.00 | 50 | 1015.2 |
| 20260507124730 | 12 | 110 | 0.0 | 0.0 | 0.00 | 0.00 | 0.00 | 52 | 1015.2 |
| 20260507124230 | 11 | 110 | 0.0 | 0.0 | 0.00 | 0.00 | 0.00 | 53 | 1015.2 |
| 20260507124000 | 11 | 110 | 0.0 | 0.0 | 0.00 | 0.00 | 0.00 | 54 | 1015.2 |
| 20260507123231 | 11 | 110 | 0.0 | 0.0 | 0.00 | 0.00 | 0.00 | 56 | 1015.2 |
| 20260507122730 | 11 | 110 | 0.0 | 0.0 | 0.00 | 0.00 | 0.00 | 56 | 1015.2 |
| 20260507122229 | 11 | 110 | 0.0 | 0.0 | 0.00 | 0.00 | 0.00 | 55 | 1015.1 |
| 20260507121950 | 11 | 110 | 0.0 | 0.0 | 0.00 | 0.00 | 0.00 | 55 | 1015.1 |
| 20260507121226 | 11 | 110 | 0.0 | 0.0 | 0.00 | 0.00 | 0.00 | 56 | 1015.1 |
| 20260507120722 | 12 | 110 | 0.0 | 0.0 | 0.00 | 0.00 | 0.00 | 56 | 1015.0 |
| 20260507120221 | 12 | 110 | 0.0 | 0.0 | 0.00 | 0.00 | 0.00 | 56 | 1015.1 |
| 20260507115938 | 12 | 110 | 0.0 | 1.6 | 0.00 | 0.00 | 0.00 | 55 | 1015.1 |
| 20260507115210 | 12 | 63 | 0.0 | 1.6 | 0.00 | 0.00 | 0.00 | 55 | 1015.1 |
| 20260507114703 | 12 | 63 | 0.0 | 1.6 | 0.00 | 0.00 | 0.00 | 55 | 1015.2 |
| 20260507114204 | 12 | 63 | 0.0 | 3.2 | 0.00 | 0.00 | 0.00 | 55 | 1015.2 |